Idaho Falls, ID

7:39 AM MDT on March 29, 2017 (GMT -0600)
Fanning

Weather History for KIDA - January, 2013

Change the Weather History Date:

Thursday, January 3, 2013

  Actual Average Record
Temperature  
Mean Temperature 0 °F 20 °F  
Max Temperature 10 °F 28 °F 46 °F (1956)
Min Temperature -11 °F 11 °F -14 °F (1974)
Degree Days  
Heating Degree Days 65 45  
Month to date heating degree days 193 135  
Since 1 July heating degree days 2929 3408  
Cooling Degree Days 0 0  
Month to date cooling degree days 0 0  
Year to date cooling degree days 0 0  
Moisture  
Dew Point -6 °F    
Average Humidity 79    
Maximum Humidity 87    
Minimum Humidity 71    
Precipitation  
Precipitation 0.00 in 0.03 in 0.17 in (1977)
Month to date precipitation T 0.08  
Year to date precipitation T 0.08  
Sea Level Pressure  
Sea Level Pressure 30.72 in    
Wind  
Wind Speed 5 mph (North)    
Max Wind Speed 13 mph    
Max Gust Speed 15 mph    
Visibility 10 miles    
Events      
T = Trace of Precipitation, MM = Missing Value Source: NWS Daily Summary

Daily Weather History Graph

Daily Weather History Graph

Search for Another Location

Airport or City:

Trip Planner

Search our weather history database for the weather conditions in past years. The results will help you decide how hot, cold, wet, or windy it might be!

Date:

Astronomy

Jan. 03, 2013 Rise Set
Actual Time 8:01 AM MST 5:04 PM MST
Civil Twilight 7:28 AM MST 5:37 PM MST
Nautical Twilight 6:52 AM MST 6:13 PM MST
Astronomical Twilight 6:18 AM MST 6:47 PM MST
Moon 11:57 PM MST (1/3) 11:02 AM MST (1/3)
Length of Visible Light 10h 08m
Length of Day
9h 03m
Waning Gibbous, 65% of the Moon is Illuminated
Jan 3
Waning Gibbous
Jan 4
Last Quarter
Jan 11
New
Jan 18
First Quarter
Jan 26
Full

Hourly Weather History & Observations

Time (MST) Temp. Windchill Dew Point Humidity Pressure Visibility Wind Dir Wind Speed Gust Speed Precip Events Conditions
12:53 AM -7.1 °F -19.9 °F -11.0 °F 83% 30.74 in 8.0 mi North 5.8 mph - N/A   Clear
1:53 AM -8.0 °F -19.2 °F -13.0 °F 79% 30.73 in 10.0 mi North 4.6 mph - N/A   Clear
2:53 AM -8.0 °F -22.5 °F -14.1 °F 75% 30.74 in 10.0 mi North 6.9 mph - N/A   Clear
3:53 AM -7.1 °F -19.9 °F -13.0 °F 75% 30.71 in 10.0 mi North 5.8 mph - N/A   Clear
4:53 AM -8.0 °F -22.5 °F -13.0 °F 79% 30.74 in 10.0 mi North 6.9 mph - N/A   Clear
5:53 AM -6.0 °F -21.5 °F -11.0 °F 79% 30.74 in 10.0 mi North 8.1 mph - N/A   Clear
6:53 AM -9.0 °F -20.4 °F -15.0 °F 75% 30.76 in 10.0 mi North 4.6 mph - N/A   Clear
7:53 AM -9.0 °F -23.8 °F -14.1 °F 79% 30.78 in 10.0 mi North 6.9 mph - N/A   Clear
8:53 AM -6.0 °F - -11.0 °F 79% 30.75 in 10.0 mi Calm Calm - N/A   Clear
9:53 AM -2.0 °F -12.2 °F -8.0 °F 76% 30.75 in 10.0 mi North 4.6 mph - N/A   Clear
10:53 AM -0.0 °F -9.9 °F -6.0 °F 76% 30.76 in 10.0 mi NNW 4.6 mph - N/A   Clear
11:53 AM 3.9 °F -5.3 °F -2.0 °F 76% 30.74 in 10.0 mi NNW 4.6 mph - N/A   Clear
12:53 PM 6.1 °F -0.9 °F 1.0 °F 80% 30.72 in 10.0 mi NW 3.5 mph - N/A   Clear
1:53 PM 9.0 °F 0.6 °F 1.9 °F 73% 30.69 in 10.0 mi NNW 4.6 mph - N/A   Clear
2:53 PM 10.0 °F 3.6 °F 3.0 °F 73% 30.69 in 10.0 mi NNW 3.5 mph - N/A   Clear
3:53 PM 8.1 °F -2.0 °F 1.0 °F 73% 30.69 in 10.0 mi NNW 5.8 mph - N/A   Clear
4:53 PM 6.1 °F -4.3 °F -0.9 °F 73% 30.71 in 10.0 mi North 5.8 mph - N/A   Clear
5:53 PM 5.0 °F -5.6 °F -2.0 °F 73% 30.71 in 10.0 mi North 5.8 mph - N/A   Clear
6:53 PM 3.0 °F -10.5 °F -2.9 °F 76% 30.73 in 10.0 mi North 8.1 mph - N/A   Clear
7:53 PM 1.9 °F -11.8 °F -4.0 °F 76% 30.73 in 10.0 mi North 8.1 mph - N/A   Clear
8:53 PM 1.9 °F -12.9 °F -4.0 °F 76% 30.70 in 10.0 mi North 9.2 mph - N/A   Clear
9:53 PM 1.9 °F - -2.9 °F 80% 30.68 in 10.0 mi Calm Calm - N/A   Clear
10:53 PM -0.0 °F -7.9 °F -5.1 °F 79% 30.68 in 10.0 mi NNE 3.5 mph - N/A   Clear
11:53 PM -0.0 °F - -5.1 °F 79% 30.66 in 10.0 mi Calm Calm - N/A   Clear